| time (UTC) | temp C | wind direction | speed KPH | gust KPH | rain 1hr cm | rain 24hr cm | rain mn cm | humidity % | barometer mb |
| 20260506005059 | 20 | 331 | 19.3 | 33.8 | 0.00 | 0.00 | 0.00 | 73 | 1005.8 |
| 20260506004602 | 20 | 340 | 19.3 | 33.8 | 0.00 | 0.00 | 0.00 | 73 | 1005.8 |
| 20260506004059 | 20 | 326 | 22.5 | 32.2 | 0.00 | 0.00 | 0.00 | 73 | 1005.6 |
| 20260506003601 | 21 | 352 | 11.3 | 22.5 | 0.00 | 0.00 | 0.00 | 73 | 1005.1 |
| 20260506003059 | 21 | 347 | 11.3 | 27.4 | 0.00 | 0.00 | 0.00 | 72 | 1005.2 |
| 20260506002601 | 21 | 313 | 14.5 | 30.6 | 0.00 | 0.00 | 0.00 | 72 | 1005.6 |
| 20260506002100 | 21 | 309 | 17.7 | 30.6 | 0.00 | 0.00 | 0.00 | 71 | 1005.1 |
| 20260506001600 | 21 | 319 | 19.3 | 30.6 | 0.00 | 0.00 | 0.00 | 72 | 1005.1 |
| 20260506001101 | 21 | 342 | 12.9 | 24.1 | 0.00 | 0.00 | 0.00 | 72 | 1005.3 |
| 20260506000600 | 22 | 306 | 14.5 | 24.1 | 0.00 | 0.00 | 0.00 | 71 | 1005.4 |
| 20260505235601 | 22 | 348 | 14.5 | 29.0 | 0.00 | 0.00 | 0.00 | 71 | 1005.0 |
| 20260505235101 | 22 | 297 | 17.7 | 29.0 | 0.00 | 0.00 | 0.00 | 70 | 1005.2 |
| 20260505234607 | 22 | 333 | 11.3 | 24.1 | 0.00 | 0.00 | 0.00 | 71 | 1005.3 |
| 20260505234100 | 22 | 330 | 14.5 | 25.7 | 0.00 | 0.00 | 0.00 | 70 | 1005.0 |
| 20260505233604 | 22 | 317 | 14.5 | 30.6 | 0.00 | 0.00 | 0.00 | 70 | 1005.1 |
| 20260505233112 | 23 | 326 | 17.7 | 30.6 | 0.00 | 0.00 | 0.00 | 69 | 1004.8 |
| 20260505232600 | 23 | 330 | 17.7 | 30.6 | 0.00 | 0.00 | 0.00 | 69 | 1004.8 |
| 20260505232100 | 23 | 330 | 19.3 | 30.6 | 0.00 | 0.00 | 0.00 | 68 | 1004.8 |
| 20260505231605 | 24 | 335 | 19.3 | 27.4 | 0.00 | 0.00 | 0.00 | 67 | 1004.7 |
| 20260505231103 | 25 | 308 | 17.7 | 25.7 | 0.00 | 0.00 | 0.00 | 66 | 1004.7 |
| 20260505230600 | 25 | 303 | 16.1 | 29.0 | 0.00 | 0.00 | 0.00 | 66 | 1004.6 |
| 20260505230058 | 25 | 295 | 19.3 | 29.0 | 0.00 | 0.00 | 0.00 | 66 | 1004.6 |
| 20260505225600 | 25 | 295 | 17.7 | 29.0 | 0.00 | 0.00 | 0.00 | 66 | 1004.5 |
| 20260505225101 | 26 | 297 | 19.3 | 29.0 | 0.00 | 0.00 | 0.00 | 65 | 1004.5 |
| 20260505224601 | 26 | 320 | 14.5 | 20.9 | 0.00 | 0.00 | 0.00 | 65 | 1004.3 |
| 20260505224100 | 26 | 311 | 11.3 | 20.9 | 0.00 | 0.00 | 0.00 | 65 | 1004.1 |
| 20260505223600 | 26 | 327 | 11.3 | 20.9 | 0.00 | 0.00 | 0.00 | 64 | 1004.0 |
| 20260505223101 | 27 | 323 | 14.5 | 20.9 | 0.00 | 0.00 | 0.00 | 63 | 1004.2 |
| 20260505222600 | 27 | 300 | 12.9 | 19.3 | 0.00 | 0.00 | 0.00 | 63 | 1004.1 |
| 20260505222100 | 27 | 294 | 11.3 | 19.3 | 0.00 | 0.00 | 0.00 | 60 | 1003.8 |
| 20260505221601 | 28 | 313 | 11.3 | 19.3 | 0.00 | 0.00 | 0.00 | 59 | 1003.7 |
| 20260505221059 | 28 | 321 | 12.9 | 22.5 | 0.00 | 0.00 | 0.00 | 59 | 1003.8 |
| 20260505220600 | 28 | 302 | 16.1 | 22.5 | 0.00 | 0.00 | 0.00 | 57 | 1003.8 |
| 20260505220059 | 28 | 290 | 12.9 | 20.9 | 0.00 | 0.00 | 0.00 | 55 | 1003.7 |
| 20260505215600 | 28 | 284 | 12.9 | 20.9 | 0.00 | 0.00 | 0.00 | 58 | 1003.7 |
| 20260505215100 | 29 | 314 | 12.9 | 17.7 | 0.00 | 0.00 | 0.00 | 57 | 1003.5 |
| 20260505214601 | 29 | 297 | 9.7 | 20.9 | 0.00 | 0.00 | 0.00 | 53 | 1003.5 |
| 20260505214101 | 29 | 288 | 12.9 | 20.9 | 0.00 | 0.00 | 0.00 | 50 | 1003.7 |
| 20260505213600 | 30 | 297 | 12.9 | 19.3 | 0.00 | 0.00 | 0.00 | 50 | 1003.8 |
| 20260505213104 | 30 | 308 | 9.7 | 20.9 | 0.00 | 0.00 | 0.00 | 53 | 1003.7 |
| 20260505212602 | 30 | 283 | 12.9 | 20.9 | 0.00 | 0.00 | 0.00 | 48 | 1003.8 |
| 20260505212100 | 30 | 329 | 14.5 | 20.9 | 0.00 | 0.00 | 0.00 | 48 | 1003.6 |
| 20260505211611 | 30 | 306 | 12.9 | 19.3 | 0.00 | 0.00 | 0.00 | 51 | 1003.6 |
| 20260505211101 | 30 | 309 | 12.9 | 20.9 | 0.00 | 0.00 | 0.00 | 48 | 1003.6 |
| 20260505210600 | 30 | 286 | 12.9 | 22.5 | 0.00 | 0.00 | 0.00 | 48 | 1003.8 |
| 20260505205600 | 30 | 305 | 12.9 | 20.9 | 0.00 | 0.00 | 0.00 | 50 | 1003.8 |
| 20260505205101 | 31 | 304 | 12.9 | 19.3 | 0.00 | 0.00 | 0.00 | 49 | 1003.9 |
| 20260505204602 | 32 | 188 | 8.0 | 14.5 | 0.00 | 0.00 | 0.00 | 55 | 1003.7 |
| 20260505204100 | 32 | 233 | 4.8 | 16.1 | 0.00 | 0.00 | 0.00 | 55 | 1003.8 |
| 20260505203601 | 32 | 255 | 8.0 | 16.1 | 0.00 | 0.00 | 0.00 | 56 | 1003.7 |
| 20260505203100 | 32 | 240 | 3.2 | 16.1 | 0.00 | 0.00 | 0.00 | 56 | 1003.7 |
| 20260505202602 | 32 | 222 | 8.0 | 16.1 | 0.00 | 0.00 | 0.00 | 57 | 1003.8 |
| 20260505202100 | 32 | 221 | 4.8 | 16.1 | 0.00 | 0.00 | 0.00 | 55 | 1003.7 |
| 20260505201601 | 32 | 128 | 6.4 | 14.5 | 0.00 | 0.00 | 0.00 | 57 | 1003.9 |
| 20260505201100 | 32 | 259 | 4.8 | 14.5 | 0.00 | 0.00 | 0.00 | 56 | 1004.1 |
| 20260505200600 | 31 | 244 | 8.0 | 14.5 | 0.00 | 0.00 | 0.00 | 57 | 1004.2 |
| 20260505200103 | 31 | 218 | 6.4 | 16.1 | 0.00 | 0.00 | 0.00 | 59 | 1004.0 |
| 20260505195559 | 31 | 124 | 8.0 | 16.1 | 0.00 | 0.00 | 0.00 | 57 | 1004.0 |
| 20260505195059 | 31 | 254 | 6.4 | 16.1 | 0.00 | 0.00 | 0.00 | 60 | 1004.0 |
| 20260505194612 | 31 | 168 | 9.7 | 16.1 | 0.00 | 0.00 | 0.00 | 58 | 1004.0 |
| 20260505194059 | 31 | 224 | 6.4 | 16.1 | 0.00 | 0.00 | 0.00 | 59 | 1004.1 |
| 20260505193603 | 31 | 20 | 4.8 | 17.7 | 0.00 | 0.00 | 0.00 | 60 | 1004.3 |
| 20260505193059 | 31 | 142 | 6.4 | 17.7 | 0.00 | 0.00 | 0.00 | 60 | 1004.3 |
| 20260505192600 | 31 | 213 | 9.7 | 17.7 | 0.00 | 0.00 | 0.00 | 60 | 1004.2 |
| 20260505192100 | 31 | 107 | 8.0 | 17.7 | 0.00 | 0.00 | 0.00 | 61 | 1004.1 |
| 20260505191600 | 31 | 101 | 6.4 | 24.1 | 0.00 | 0.00 | 0.00 | 62 | 1003.9 |
| 20260505191059 | 30 | 88 | 8.0 | 24.1 | 0.00 | 0.00 | 0.00 | 63 | 1004.0 |
| 20260505190559 | 30 | 187 | 9.7 | 17.7 | 0.00 | 0.00 | 0.00 | 62 | 1004.1 |
| 20260505190058 | 30 | 248 | 11.3 | 17.7 | 0.00 | 0.00 | 0.00 | 64 | 1004.0 |
| 20260505185604 | 29 | 178 | 9.7 | 17.7 | 0.00 | 0.00 | 0.00 | 65 | 1004.2 |
| 20260505185100 | 29 | 172 | 9.7 | 19.3 | 0.00 | 0.00 | 0.00 | 66 | 1004.0 |
| 20260505184558 | 28 | 257 | 9.7 | 19.3 | 0.00 | 0.00 | 0.00 | 66 | 1004.0 |
| 20260505184100 | 28 | 203 | 8.0 | 16.1 | 0.00 | 0.00 | 0.00 | 65 | 1004.1 |
| 20260505183603 | 28 | 212 | 8.0 | 22.5 | 0.00 | 0.00 | 0.00 | 64 | 1004.1 |
| 20260505183058 | 29 | 164 | 6.4 | 22.5 | 0.00 | 0.00 | 0.00 | 64 | 1004.3 |
| 20260505182559 | 29 | 167 | 8.0 | 20.9 | 0.00 | 0.00 | 0.00 | 64 | 1004.3 |
| 20260505182100 | 29 | 185 | 11.3 | 20.9 | 0.00 | 0.00 | 0.00 | 64 | 1004.3 |
| 20260505181601 | 29 | 209 | 6.4 | 20.9 | 0.00 | 0.00 | 0.00 | 65 | 1004.3 |
| 20260505181100 | 29 | 116 | 9.7 | 20.9 | 0.00 | 0.00 | 0.00 | 64 | 1004.2 |
| 20260505180600 | 28 | 210 | 6.4 | 17.7 | 0.00 | 0.00 | 0.00 | 65 | 1004.3 |
| 20260505175601 | 29 | 217 | 8.0 | 19.3 | 0.00 | 0.00 | 0.00 | 66 | 1004.3 |
| 20260505175101 | 29 | 196 | 8.0 | 17.7 | 0.00 | 0.00 | 0.00 | 66 | 1004.2 |
| 20260505174606 | 29 | 170 | 8.0 | 17.7 | 0.00 | 0.00 | 0.00 | 68 | 1004.3 |
| 20260505174100 | 28 | 232 | 6.4 | 17.7 | 0.00 | 0.00 | 0.00 | 67 | 1004.3 |
| 20260505173602 | 28 | 134 | 6.4 | 22.5 | 0.00 | 0.00 | 0.00 | 70 | 1004.2 |
| 20260505173100 | 28 | 200 | 9.7 | 22.5 | 0.00 | 0.00 | 0.00 | 69 | 1004.2 |
| 20260505172600 | 27 | 226 | 8.0 | 22.5 | 0.00 | 0.00 | 0.00 | 70 | 1004.2 |
| 20260505172100 | 27 | 205 | 8.0 | 22.5 | 0.00 | 0.00 | 0.00 | 71 | 1004.2 |
| 20260505171606 | 27 | 177 | 4.8 | 20.9 | 0.00 | 0.00 | 0.00 | 73 | 1004.3 |
| 20260505171103 | 27 | 148 | 11.3 | 20.9 | 0.00 | 0.00 | 0.00 | 72 | 1004.3 |
| 20260505170601 | 26 | 191 | 9.7 | 22.5 | 0.00 | 0.00 | 0.00 | 72 | 1004.3 |
| 20260505170059 | 26 | 160 | 8.0 | 22.5 | 0.00 | 0.00 | 0.00 | 73 | 1004.3 |
| 20260505165600 | 26 | 182 | 9.7 | 20.9 | 0.00 | 0.00 | 0.00 | 73 | 1004.3 |
| 20260505165100 | 26 | 207 | 9.7 | 20.9 | 0.00 | 0.00 | 0.00 | 73 | 1004.3 |
| 20260505164622 | 26 | 166 | 11.3 | 20.9 | 0.00 | 0.00 | 0.00 | 73 | 1004.3 |
| 20260505164102 | 26 | 117 | 6.4 | 17.7 | 0.00 | 0.00 | 0.00 | 73 | 1004.4 |
| 20260505163600 | 26 | 200 | 8.0 | 20.9 | 0.00 | 0.00 | 0.00 | 75 | 1004.2 |
| 20260505163107 | 26 | 187 | 8.0 | 20.9 | 0.00 | 0.00 | 0.00 | 75 | 1004.3 |
| 20260505162600 | 26 | 151 | 9.7 | 20.9 | 0.00 | 0.00 | 0.00 | 75 | 1004.3 |
| 20260505162100 | 25 | 196 | 6.4 | 14.5 | 0.00 | 0.00 | 0.00 | 75 | 1004.3 |
| 20260505161615 | 25 | 167 | 6.4 | 19.3 | 0.00 | 0.00 | 0.00 | 76 | 1004.2 |
| 20260505161100 | 25 | 147 | 8.0 | 19.3 | 0.00 | 0.00 | 0.00 | 76 | 1004.3 |
| 20260505160601 | 25 | 233 | 11.3 | 22.5 | 0.00 | 0.00 | 0.00 | 76 | 1004.1 |
| 20260505153107 | 25 | 167 | 11.3 | 22.5 | 0.00 | 0.00 | 0.00 | 77 | 1004.1 |
| 20260505152601 | 25 | 163 | 9.7 | 25.7 | 0.00 | 0.00 | 0.00 | 76 | 1004.2 |
| 20260505152101 | 25 | 209 | 11.3 | 25.7 | 0.00 | 0.00 | 0.00 | 77 | 1004.2 |
| 20260505151600 | 25 | 134 | 11.3 | 24.1 | 0.00 | 0.00 | 0.00 | 76 | 1004.0 |
| 20260505151104 | 25 | 212 | 12.9 | 22.5 | 0.00 | 0.00 | 0.00 | 77 | 1004.0 |
| 20260505150601 | 24 | 127 | 9.7 | 22.5 | 0.00 | 0.00 | 0.00 | 79 | 1004.0 |
| 20260505140602 | 22 | 169 | 9.7 | 17.7 | 0.00 | 0.00 | 0.00 | 82 | 1004.0 |
| 20260505130114 | 21 | 184 | 9.7 | 25.7 | 0.00 | 0.00 | 0.00 | 85 | 1003.8 |
| 20260505124617 | 21 | 213 | 11.3 | 22.5 | 0.00 | 0.00 | 0.00 | 86 | 1003.6 |
| 20260505124101 | 21 | 214 | 8.0 | 20.9 | 0.00 | 0.00 | 0.00 | 86 | 1003.4 |
| 20260505123600 | 21 | 210 | 9.7 | 20.9 | 0.00 | 0.00 | 0.00 | 86 | 1003.3 |
| 20260505123116 | 21 | 310 | 8.0 | 24.1 | 0.00 | 0.00 | 0.00 | 86 | 1003.1 |
| 20260505122602 | 21 | 176 | 11.3 | 24.1 | 0.00 | 0.00 | 0.00 | 86 | 1003.1 |
| 20260505122100 | 21 | 194 | 4.8 | 17.7 | 0.00 | 0.00 | 0.00 | 86 | 1003.2 |
| 20260505121600 | 21 | 169 | 8.0 | 19.3 | 0.00 | 0.00 | 0.00 | 86 | 1003.0 |
| 20260505121105 | 21 | 205 | 8.0 | 19.3 | 0.00 | 0.00 | 0.00 | 86 | 1002.8 |
| 20260505120600 | 21 | 172 | 8.0 | 17.7 | 0.00 | 0.00 | 0.00 | 86 | 1003.0 |
| 20260505120123 | 21 | 173 | 6.4 | 16.1 | 0.00 | 0.00 | 0.00 | 86 | 1003.1 |
| 20260505115559 | 20 | 207 | 6.4 | 16.1 | 0.00 | 0.00 | 0.00 | 87 | 1003.0 |
| 20260505115102 | 20 | 205 | 6.4 | 19.3 | 0.00 | 0.00 | 0.00 | 87 | 1003.0 |
| 20260505114602 | 20 | 184 | 6.4 | 19.3 | 0.00 | 0.00 | 0.00 | 87 | 1002.9 |
| 20260505114059 | 20 | 204 | 6.4 | 16.1 | 0.00 | 0.00 | 0.00 | 87 | 1002.9 |
| 20260505113559 | 20 | 170 | 8.0 | 16.1 | 0.00 | 0.00 | 0.00 | 86 | 1002.8 |
| 20260505113106 | 20 | 230 | 6.4 | 17.7 | 0.00 | 0.00 | 0.00 | 86 | 1002.8 |
| 20260505112604 | 20 | 208 | 4.8 | 17.7 | 0.00 | 0.00 | 0.00 | 86 | 1002.8 |
| 20260505112100 | 20 | 198 | 4.8 | 16.1 | 0.00 | 0.00 | 0.00 | 86 | 1002.8 |
| 20260505111559 | 20 | 127 | 6.4 | 16.1 | 0.00 | 0.00 | 0.00 | 86 | 1002.8 |
| 20260505111103 | 20 | 240 | 6.4 | 12.9 | 0.00 | 0.00 | 0.00 | 86 | 1002.8 |
| 20260505110559 | 20 | 209 | 4.8 | 12.9 | 0.00 | 0.00 | 0.00 | 86 | 1002.9 |
| 20260505110118 | 20 | 148 | 6.4 | 14.5 | 0.00 | 0.00 | 0.00 | 86 | 1002.9 |
| 20260505102100 | 21 | 206 | 12.9 | 20.9 | 0.00 | 0.00 | 0.00 | 85 | 1002.8 |
| 20260505101603 | 21 | 170 | 6.4 | 24.1 | 0.00 | 0.00 | 0.00 | 85 | 1003.0 |
| 20260505101100 | 21 | 165 | 12.9 | 24.1 | 0.00 | 0.00 | 0.00 | 85 | 1002.7 |
| 20260505100603 | 21 | 205 | 9.7 | 24.1 | 0.00 | 0.00 | 0.00 | 85 | 1002.6 |
| 20260505100059 | 21 | 224 | 9.7 | 24.1 | 0.00 | 0.00 | 0.00 | 85 | 1002.6 |
| 20260505095603 | 21 | 158 | 11.3 | 24.1 | 0.00 | 0.00 | 0.00 | 84 | 1002.7 |
| 20260505095059 | 21 | 205 | 11.3 | 24.1 | 0.00 | 0.00 | 0.00 | 84 | 1002.7 |
| 20260505094609 | 21 | 193 | 9.7 | 20.9 | 0.00 | 0.00 | 0.00 | 84 | 1002.7 |
| 20260505094059 | 21 | 186 | 8.0 | 20.9 | 0.00 | 0.00 | 0.00 | 84 | 1002.7 |
| 20260505093559 | 21 | 180 | 8.0 | 20.9 | 0.00 | 0.00 | 0.00 | 84 | 1002.7 |
| 20260505093109 | 21 | 84 | 11.3 | 24.1 | 0.00 | 0.00 | 0.00 | 84 | 1002.7 |
| 20260505092600 | 21 | 121 | 9.7 | 24.1 | 0.00 | 0.00 | 0.00 | 84 | 1002.8 |
| 20260505092100 | 21 | 124 | 12.9 | 25.7 | 0.00 | 0.00 | 0.00 | 83 | 1002.9 |
| 20260505091558 | 21 | 231 | 8.0 | 25.7 | 0.00 | 0.00 | 0.00 | 83 | 1002.9 |
| 20260505091100 | 21 | 219 | 9.7 | 27.4 | 0.00 | 0.00 | 0.00 | 83 | 1003.0 |
| 20260505090559 | 21 | 191 | 11.3 | 27.4 | 0.00 | 0.00 | 0.00 | 83 | 1003.1 |
| 20260505090101 | 21 | 136 | 12.9 | 27.4 | 0.00 | 0.00 | 0.00 | 83 | 1003.1 |
| 20260505085559 | 21 | 154 | 11.3 | 22.5 | 0.00 | 0.00 | 0.00 | 82 | 1003.1 |
| 20260505085100 | 22 | 177 | 11.3 | 30.6 | 0.00 | 0.00 | 0.00 | 82 | 1003.3 |
| 20260505084622 | 22 | 161 | 9.7 | 30.6 | 0.00 | 0.00 | 0.00 | 82 | 1003.2 |
| 20260505084059 | 22 | 188 | 12.9 | 24.1 | 0.00 | 0.00 | 0.00 | 82 | 1003.3 |
| 20260505083559 | 22 | 155 | 9.7 | 24.1 | 0.00 | 0.00 | 0.00 | 81 | 1003.3 |
| 20260505083103 | 22 | 184 | 11.3 | 24.1 | 0.00 | 0.00 | 0.00 | 81 | 1003.4 |
| 20260505082602 | 22 | 150 | 9.7 | 20.9 | 0.00 | 0.00 | 0.00 | 81 | 1003.4 |
| 20260505082100 | 22 | 191 | 9.7 | 20.9 | 0.00 | 0.00 | 0.00 | 80 | 1003.2 |
| 20260505081615 | 22 | 178 | 8.0 | 20.9 | 0.00 | 0.00 | 0.00 | 80 | 1003.2 |
| 20260505081100 | 22 | 195 | 9.7 | 17.7 | 0.00 | 0.00 | 0.00 | 80 | 1003.3 |
| 20260505080600 | 22 | 204 | 9.7 | 19.3 | 0.00 | 0.00 | 0.00 | 79 | 1003.2 |
| 20260505080109 | 22 | 204 | 9.7 | 19.3 | 0.00 | 0.00 | 0.00 | 79 | 1003.3 |
| 20260505075559 | 22 | 177 | 9.7 | 24.1 | 0.00 | 0.00 | 0.00 | 79 | 1003.3 |
| 20260505075059 | 22 | 196 | 11.3 | 24.1 | 0.00 | 0.00 | 0.00 | 78 | 1003.4 |
| 20260505074559 | 22 | 206 | 9.7 | 22.5 | 0.00 | 0.00 | 0.00 | 78 | 1003.5 |
| 20260505074100 | 22 | 207 | 11.3 | 22.5 | 0.00 | 0.00 | 0.00 | 78 | 1003.6 |
| 20260505073603 | 22 | 203 | 8.0 | 17.7 | 0.00 | 0.00 | 0.00 | 78 | 1003.6 |
| 20260505073059 | 22 | 179 | 8.0 | 16.1 | 0.00 | 0.00 | 0.00 | 77 | 1003.8 |
| 20260505072559 | 22 | 190 | 8.0 | 22.5 | 0.00 | 0.00 | 0.00 | 77 | 1003.9 |
| 20260505072100 | 22 | 187 | 9.7 | 22.5 | 0.00 | 0.00 | 0.00 | 77 | 1004.1 |
| 20260505071617 | 22 | 178 | 11.3 | 20.9 | 0.00 | 0.00 | 0.00 | 76 | 1004.0 |
| 20260505071100 | 22 | 214 | 9.7 | 29.0 | 0.00 | 0.00 | 0.00 | 76 | 1004.1 |
| 20260505070603 | 22 | 164 | 12.9 | 29.0 | 0.00 | 0.00 | 0.00 | 76 | 1004.2 |
| 20260505070111 | 23 | 202 | 9.7 | 19.3 | 0.00 | 0.00 | 0.00 | 76 | 1004.3 |
| 20260505065559 | 23 | 121 | 9.7 | 27.4 | 0.00 | 0.00 | 0.00 | 75 | 1004.3 |
| 20260505065101 | 23 | 160 | 11.3 | 27.4 | 0.00 | 0.00 | 0.00 | 75 | 1004.5 |
| 20260505064600 | 23 | 214 | 8.0 | 19.3 | 0.00 | 0.00 | 0.00 | 75 | 1004.6 |
| 20260505064103 | 23 | 206 | 8.0 | 20.9 | 0.00 | 0.00 | 0.00 | 74 | 1004.6 |
| 20260505063559 | 23 | 143 | 9.7 | 25.7 | 0.00 | 0.00 | 0.00 | 74 | 1004.8 |
| 20260505063058 | 23 | 129 | 11.3 | 25.7 | 0.00 | 0.00 | 0.00 | 73 | 1004.8 |
| 20260505062559 | 23 | 72 | 9.7 | 25.7 | 0.00 | 0.00 | 0.00 | 73 | 1004.8 |
| 20260505062101 | 23 | 226 | 9.7 | 24.1 | 0.00 | 0.00 | 0.00 | 73 | 1004.8 |
| 20260505061601 | 23 | 205 | 9.7 | 24.1 | 0.00 | 0.00 | 0.00 | 73 | 1004.8 |
| 20260505061059 | 23 | 176 | 12.9 | 25.7 | 0.00 | 0.00 | 0.00 | 72 | 1004.9 |
| 20260505060600 | 23 | 211 | 9.7 | 25.7 | 0.00 | 0.00 | 0.00 | 73 | 1004.9 |
| 20260505060059 | 23 | 113 | 8.0 | 22.5 | 0.00 | 0.00 | 0.00 | 73 | 1004.9 |
| 20260505055600 | 23 | 209 | 11.3 | 22.5 | 0.00 | 0.00 | 0.00 | 73 | 1004.9 |
| 20260505055100 | 23 | 133 | 11.3 | 22.5 | 0.00 | 0.00 | 0.00 | 73 | 1004.8 |
| 20260505054602 | 23 | 225 | 9.7 | 22.5 | 0.00 | 0.00 | 0.00 | 74 | 1004.9 |
| 20260505054103 | 23 | 203 | 6.4 | 17.7 | 0.00 | 0.00 | 0.00 | 74 | 1004.8 |
| 20260505053559 | 23 | 176 | 9.7 | 19.3 | 0.00 | 0.00 | 0.00 | 75 | 1004.8 |
| 20260505053105 | 23 | 222 | 8.0 | 19.3 | 0.00 | 0.00 | 0.00 | 75 | 1004.8 |
| 20260505052559 | 23 | 175 | 8.0 | 17.7 | 0.00 | 0.00 | 0.00 | 75 | 1004.7 |
| 20260505052103 | 23 | 143 | 8.0 | 17.7 | 0.00 | 0.00 | 0.00 | 75 | 1004.8 |
| 20260505051559 | 23 | 226 | 9.7 | 16.1 | 0.00 | 0.00 | 0.00 | 75 | 1004.8 |
| 20260505051059 | 23 | 203 | 6.4 | 19.3 | 0.00 | 0.00 | 0.00 | 75 | 1004.8 |
| 20260505050559 | 23 | 167 | 6.4 | 19.3 | 0.00 | 0.00 | 0.00 | 75 | 1004.9 |
| 20260505041557 | 23 | 162 | 9.7 | 25.7 | 0.00 | 0.00 | 0.00 | 74 | 1005.1 |
| 20260505041059 | 23 | 201 | 11.3 | 25.7 | 0.00 | 0.00 | 0.00 | 74 | 1005.0 |
| 20260505040602 | 23 | 194 | 11.3 | 20.9 | 0.00 | 0.00 | 0.00 | 74 | 1005.0 |
| 20260505040105 | 23 | 220 | 9.7 | 20.9 | 0.00 | 0.00 | 0.00 | 74 | 1005.1 |
| 20260505035559 | 23 | 198 | 9.7 | 20.9 | 0.00 | 0.00 | 0.00 | 74 | 1005.1 |
| 20260505035059 | 23 | 140 | 9.7 | 20.9 | 0.00 | 0.00 | 0.00 | 73 | 1005.0 |
| 20260505034557 | 23 | 176 | 12.9 | 24.1 | 0.00 | 0.00 | 0.00 | 73 | 1005.0 |
| 20260505034059 | 23 | 198 | 9.7 | 24.1 | 0.00 | 0.00 | 0.00 | 73 | 1005.1 |
| 20260505033600 | 23 | 208 | 9.7 | 20.9 | 0.00 | 0.00 | 0.00 | 73 | 1005.0 |
| 20260505033100 | 23 | 160 | 11.3 | 20.9 | 0.00 | 0.00 | 0.00 | 73 | 1005.0 |
| 20260505032600 | 23 | 113 | 9.7 | 17.7 | 0.00 | 0.00 | 0.00 | 73 | 1004.9 |
| 20260505032059 | 23 | 134 | 9.7 | 19.3 | 0.00 | 0.00 | 0.00 | 73 | 1004.9 |
| 20260505031601 | 23 | 175 | 11.3 | 19.3 | 0.00 | 0.00 | 0.00 | 73 | 1005.0 |
| 20260505031059 | 23 | 122 | 11.3 | 19.3 | 0.00 | 0.00 | 0.00 | 73 | 1005.2 |
| 20260505030600 | 23 | 151 | 8.0 | 17.7 | 0.00 | 0.00 | 0.00 | 73 | 1005.2 |
| 20260505030104 | 23 | 72 | 9.7 | 19.3 | 0.00 | 0.00 | 0.00 | 73 | 1005.1 |
| 20260505025600 | 23 | 193 | 6.4 | 20.9 | 0.00 | 0.00 | 0.00 | 73 | 1005.1 |
| 20260505025101 | 23 | 174 | 6.4 | 20.9 | 0.00 | 0.00 | 0.00 | 73 | 1005.1 |
| 20260505024558 | 23 | 205 | 6.4 | 22.5 | 0.00 | 0.00 | 0.00 | 73 | 1005.2 |
| 20260505024102 | 23 | 150 | 9.7 | 22.5 | 0.00 | 0.00 | 0.00 | 73 | 1005.2 |
| 20260505023559 | 23 | 146 | 6.4 | 17.7 | 0.00 | 0.00 | 0.00 | 73 | 1005.2 |
| 20260505023108 | 23 | 122 | 6.4 | 17.7 | 0.00 | 0.00 | 0.00 | 72 | 1005.1 |
| 20260505022602 | 23 | 124 | 8.0 | 20.9 | 0.00 | 0.00 | 0.00 | 72 | 1005.1 |
| 20260505022100 | 23 | 141 | 6.4 | 20.9 | 0.00 | 0.00 | 0.00 | 72 | 1005.2 |
| 20260505021603 | 23 | 119 | 8.0 | 20.9 | 0.00 | 0.00 | 0.00 | 72 | 1005.2 |
| 20260505021059 | 23 | 162 | 8.0 | 16.1 | 0.00 | 0.00 | 0.00 | 72 | 1005.0 |
| 20260505020600 | 23 | 139 | 9.7 | 16.1 | 0.00 | 0.00 | 0.00 | 72 | 1005.1 |
| 20260505020104 | 23 | 178 | 8.0 | 17.7 | 0.00 | 0.00 | 0.00 | 72 | 1005.1 |
| 20260505015600 | 23 | 151 | 6.4 | 17.7 | 0.00 | 0.00 | 0.00 | 72 | 1005.0 |
| 20260505015102 | 23 | 205 | 8.0 | 19.3 | 0.00 | 0.00 | 0.00 | 72 | 1005.0 |
| 20260505014600 | 23 | 195 | 8.0 | 19.3 | 0.00 | 0.00 | 0.00 | 71 | 1004.9 |
| 20260505014059 | 23 | 152 | 9.7 | 19.3 | 0.00 | 0.00 | 0.00 | 71 | 1004.9 |
| 20260505013600 | 23 | 143 | 8.0 | 17.7 | 0.00 | 0.00 | 0.00 | 71 | 1005.0 |
| 20260505013057 | 23 | 173 | 9.7 | 22.5 | 0.00 | 0.00 | 0.00 | 71 | 1004.9 |
| 20260505012602 | 23 | 152 | 9.7 | 22.5 | 0.00 | 0.00 | 0.00 | 71 | 1005.1 |
| 20260505012059 | 23 | 207 | 9.7 | 20.9 | 0.00 | 0.00 | 0.00 | 70 | 1004.9 |
| 20260505011559 | 24 | 120 | 9.7 | 25.7 | 0.00 | 0.00 | 0.00 | 70 | 1005.0 |
| 20260505011101 | 24 | 96 | 12.9 | 25.7 | 0.00 | 0.00 | 0.00 | 70 | 1005.1 |
| 20260505010601 | 24 | 178 | 11.3 | 20.9 | 0.00 | 0.00 | 0.00 | 70 | 1005.0 |
| 20260505010105 | 24 | 161 | 9.7 | 19.3 | 0.00 | 0.00 | 0.00 | 70 | 1005.0 |
| 20260505005600 | 24 | 162 | 9.7 | 19.3 | 0.00 | 0.00 | 0.00 | 69 | 1004.9 |